Regional Weather Roundup
Issued by NWS Memphis, TN

Home | Current Version | Previous Version | Text Only | Print | Product List | Glossary On
Versions: 1 2 3 4 5 6 7 8 9 10 11 12 13 14 15 16 17 18 19 20 21 22 23 24 25 26 27 28 29 30 31 32 33 34 35 36 37 38 39 40 41 42 43 44 45 46 47 48 49 50
000
ASUS44 KMEG 060900
RWRMEG
MEMPHIS CWA HOURLY WEATHER ROUNDUP
NATIONAL WEATHER SERVICE MEMPHIS TN
300 AM CST FRI MAR 06 2015

...WEST TENNESSEE...

CITY           SKY/WX    TMP DP  RH WIND       PRES   REMARKS
MEMPHIS INTL   CLEAR     19   8  62 NE6       30.57S WCI  11
NWS MEMPHIS      N/A     12 N/A N/A MISG        N/A
JACKSON        PTCLDY    14   5  67 NE3       30.57S
LEXINGTON      CLEAR     10   3  72 CALM      30.53F
SAVANNAH       CLEAR     16   7  67 N3        30.55S
DYERSBURG      PTCLDY    10  -6  48 CALM      30.60F
UNION CITY     CLEAR      9   7  92 CALM      30.57S
PARIS            N/A      1  -4  78 CALM      30.55F


...EASTERN ARKANSAS...

CITY           SKY/WX    TMP DP  RH WIND       PRES   REMARKS
JONESBORO      PTCLDY     8   5  87 NE3       30.59F
WEST MEMPHIS   PTCLDY    13  11  92 N3        30.58F
BATESVILLE     CLEAR     16  10  79 CALM      30.57F
WALNUT RIDGE     N/A      9   5  85 N3        30.59S VSB 1/4
BLYTHEVILLE    PTCLDY     4   0  83 NE3       30.60S
SEARCY         CLEAR     15  12  88 CALM      30.61S
STUTTGART      CLEAR     21  14  73 NE3       30.59F
PINE BLUFF     CLEAR     21  16  81 CALM      30.59S
MONTICELLO     CLEAR     23  17  78 CALM      30.57S


...NORTH MISSISSIPPI...

CITY           SKY/WX    TMP DP  RH WIND       PRES   REMARKS
TUPELO         CLEAR     20  11  68 NE9       30.54F WCI   9
OLIVE BRANCH   CLEAR     16  14  93 CALM      30.57F
TUNICA         CLEAR     23  19  86 N3        30.59F
GREENWOOD      CLEAR     22  14  71 N9        30.56S WCI  12
STARKVILLE     FAIR      23  18  80 CALM      30.52F
GOLDEN TRIANGL CLEAR     21  16  79 N9        30.50F WCI  11


...SOUTHEAST MISSOURI...

CITY           SKY/WX    TMP DP  RH WIND       PRES   REMARKS
WEST PLAINS    CLEAR     16   7  67 S6        30.50F WCI   7
POPLAR BLUFF   PTCLDY    10   6  84 CALM      30.58F
CAPE GIRARDEAU FOG       -1  -2  95 CALM      30.60F VSB 1/4


...NORTHWEST ALABAMA...

CITY           SKY/WX    TMP DP  RH WIND       PRES   REMARKS
MUSCLE SHOALS  CLEAR     18   9  68 N6        30.53F WCI  10


...MIDDLE TENNESSEE...

CITY           SKY/WX    TMP DP  RH WIND       PRES   REMARKS
NASHVILLE      PTCLDY    12   7  80 NW3       30.55S
CLARKSVILLE    PTCLDY     5   2  87 CALM      30.56F
COLUMBIA         N/A     12  10  92 CALM      30.50F


...WESTERN KENTUCKY...

CITY           SKY/WX    TMP DP  RH WIND       PRES   REMARKS
PADUCAH        PTCLDY     1  -4  79 CALM      30.57F
FORT CAMPBELL  PTCLDY     1  -3  85 CALM      30.55F


...CENTRAL ARKANSAS...

CITY           SKY/WX    TMP DP  RH WIND       PRES   REMARKS
LITTLE ROCK    CLEAR     20  15  81 CALM      30.59F


SKY/WX REPORTED AS FAIR MEANS FEW OR NO CLOUDS BELOW
12 THOUSAND FEET.




USA.gov is the U.S. government's official web portal to all federal, state and local government web resources and services.